User: anonymous   Login
Location: Stockholm
(59.3330°N, 18.0500°E)
Time: 02:08:43
(UTC+02:00)
Language:

NOAA 18 - Orbit

View from above orbital plane
View from above orbital plane
View from above satellite
View from above satellite

Ground track
Ground track

The orbit data is extracted from the following two-line orbital elements,

1 28654U 05018A   24176.85438837  .00000269  00000-0  16712-3 0  9992
2 28654  98.8745 253.7556 0014864  45.4948 314.7436 14.13237329984349
Epoch (UTC): 24 June 2024 20:30:19
Eccentricity: 0.0014864
inclination: 98.8745°
perigee height: 837 km
apogee height: 859 km
right ascension of ascending node: 253.7556°
argument of perigee: 45.4948°
revolutions per day: 14.13237329
mean anomaly at epoch: 314.7436°
orbit number at epoch: 98434

The dashed part of the orbit path shows where the satellite is in the earth's shadow,  

DLR